When you browse on this site, cookies collect data to enhance your experience and personalize the content and advertising you see.
Visit our Privacy Policy to learn more. By continuing to use the site, you agree to this use of cookies and data.
  • In Switzerland
  • List of Countries
  • For 7 days
  • Water Temperature
  • Satellite Maps
  • Weather Map
  • Weather Widgets
  • user-avatar
    Login

    Hourly Weather Karakol

    Today, 22 January, Tuesday

    Time Temperature Precipitation Wind Pressure Humidity
    00:00 -9°C° 0 mm 3 mps 604 mmHg 69%
    01:00 -9°C° 0 mm 3 mps 603 mmHg 68%
    02:00 -9°C° 0 mm 3 mps 603 mmHg 67%
    03:00 -9°C° 0 mm 3 mps 603 mmHg 65%
    04:00 -9°C° 0 mm 3 mps 603 mmHg 64%
    05:00 -8°C° 0 mm 3 mps 603 mmHg 63%
    06:00 -8°C° 0 mm 3 mps 602 mmHg 64%
    07:00 -8°C° 0 mm 3 mps 602 mmHg 64%
    08:00 -8°C° 0 mm 3 mps 602 mmHg 65%
    09:00 -6°C° 0 mm 3 mps 602 mmHg 67%
    10:00 -4°C° 0 mm 2 mps 602 mmHg 69%
    11:00 -3°C° 0 mm 2 mps 602 mmHg 71%
    12:00 -3°C° 0 mm 2 mps 602 mmHg 73%
    13:00 -3°C° 0 mm 2 mps 602 mmHg 75%
    14:00 -3°C° 0 mm 2 mps 601 mmHg 77%
    15:00 -4°C° 0 mm 2 mps 601 mmHg 75%
    16:00 -5°C° 0 mm 2 mps 601 mmHg 72%
    17:00 -5°C° 0 mm 2 mps 601 mmHg 70%
    18:00 -6°C° 0 mm 2 mps 601 mmHg 67%
    19:00 -6°C° 0 mm 2 mps 601 mmHg 65%
    20:00 -7°C° 0 mm 2 mps 601 mmHg 62%
    21:00 -7°C° 0 mm 2 mps 601 mmHg 62%
    22:00 -7°C° 0 mm 2 mps 601 mmHg 61%
    23:00 -7°C° 0 mm 2 mps 601 mmHg 60%

    Tomorrow, 23 January, Wednesday

    Time Temperature Precipitation Wind Pressure Humidity
    00:00 -7°C° 0 mm 2 mps 600 mmHg 61%
    01:00 -7°C° 0 mm 2 mps 600 mmHg 61%
    02:00 -7°C° 0 mm 1 mps 600 mmHg 62%
    03:00 -7°C° 0 mm 1 mps 600 mmHg 63%
    04:00 -7°C° 0 mm 1 mps 600 mmHg 64%
    05:00 -7°C° 0 mm 1 mps 600 mmHg 64%
    06:00 -7°C° 0 mm 1 mps 601 mmHg 65%
    07:00 -7°C° 0 mm 1 mps 601 mmHg 67%
    08:00 -7°C° 0 mm 1 mps 601 mmHg 68%
    09:00 -6°C° 0 mm 1 mps 602 mmHg 70%
    10:00 -4°C° 0 mm 1 mps 602 mmHg 73%
    11:00 -3°C° 0 mm 1 mps 602 mmHg 75%
    12:00 -3°C° 0 mm 1 mps 602 mmHg 76%
    13:00 -3°C° 0 mm 1 mps 602 mmHg 77%
    14:00 -3°C° 0 mm 1 mps 602 mmHg 78%
    15:00 -4°C° 0 mm 1 mps 602 mmHg 76%
    16:00 -7°C° 0 mm 2 mps 601 mmHg 75%
    17:00 -9°C° 0 mm 2 mps 601 mmHg 73%
    18:00 -9°C° 0 mm 2 mps 601 mmHg 69%
    19:00 -9°C° 0 mm 2 mps 602 mmHg 66%
    20:00 -10°C° 0 mm 3 mps 602 mmHg 63%
    21:00 -12°C° 0 mm 3 mps 602 mmHg 60%
    22:00 -10°C° 0 mm 2 mps 602 mmHg 58%
    23:00 -10°C° 0 mm 2 mps 603 mmHg 56%

    Day after tomorrow, 24 January, Thursday

    Time Temperature Precipitation Wind Pressure Humidity
    00:00 -10°C° 0 mm 2 mps 603 mmHg 55%
    01:00 -10°C° 0 mm 2 mps 603 mmHg 54%
    02:00 -10°C° 0 mm 2 mps 603 mmHg 52%
    03:00 -10°C° 0 mm 2 mps 603 mmHg 52%
    04:00 -10°C° 0 mm 2 mps 603 mmHg 51%
    05:00 -10°C° 0 mm 2 mps 603 mmHg 51%
    06:00 -10°C° 0 mm 2 mps 604 mmHg 52%
    07:00 -10°C° 0 mm 2 mps 604 mmHg 53%
    08:00 -10°C° 0 mm 2 mps 605 mmHg 54%
    09:00 -9°C° 0 mm 2 mps 606 mmHg 58%
    10:00 -7°C° 0 mm 2 mps 606 mmHg 62%
    11:00 -4°C° 0 mm 1 mps 607 mmHg 66%
    12:00 -4°C° 0 mm 1 mps 606 mmHg 69%
    13:00 -4°C° 0 mm 1 mps 606 mmHg 72%
    14:00 -4°C° 0 mm 1 mps 606 mmHg 75%
    15:00 -6°C° 0 mm 1 mps 606 mmHg 75%
    16:00 -7°C° 0 mm 1 mps 606 mmHg 74%
    17:00 -9°C° 0 mm 2 mps 606 mmHg 74%
    18:00 -10°C° 0 mm 2 mps 606 mmHg 72%
    19:00 -10°C° 0 mm 2 mps 607 mmHg 69%
    20:00 -10°C° 0 mm 2 mps 607 mmHg 67%
    21:00 -10°C° 0 mm 2 mps 607 mmHg 66%
    22:00 -10°C° 0 mm 2 mps 607 mmHg 65%
    23:00 -12°C° 0 mm 2 mps 608 mmHg 64%

    25 January, Friday

    Time Temperature Precipitation Wind Pressure Humidity
    00:00 -12°C° 0 mm 2 mps 608 mmHg 64%
    01:00 -12°C° 0 mm 2 mps 608 mmHg 63%
    02:00 -12°C° 0 mm 2 mps 608 mmHg 62%
    03:00 -12°C° 0 mm 2 mps 608 mmHg 62%
    04:00 -13°C° 0 mm 2 mps 608 mmHg 62%
    05:00 -13°C° 0 mm 2 mps 608 mmHg 61%
    06:00 -14°C° 0 mm 3 mps 608 mmHg 61%
    07:00 -14°C° 0 mm 3 mps 608 mmHg 61%
    08:00 -14°C° 0 mm 3 mps 609 mmHg 61%
    09:00 -10°C° 0 mm 2 mps 609 mmHg 61%
    10:00 -7°C° 0 mm 1 mps 609 mmHg 62%
    11:00 -6°C° 0 mm 1 mps 609 mmHg 62%
    12:00 -6°C° 0 mm 1 mps 608 mmHg 64%
    13:00 -4°C° 0 mm 1 mps 608 mmHg 66%
    14:00 -4°C° 0 mm 1 mps 608 mmHg 68%
    15:00 -7°C° 0 mm 1 mps 607 mmHg 64%
    16:00 -9°C° 0 mm 2 mps 607 mmHg 60%
    17:00 -10°C° 0 mm 2 mps 606 mmHg 56%
    18:00 -13°C° 0 mm 3 mps 607 mmHg 52%
    19:00 -13°C° 0 mm 3 mps 607 mmHg 47%
    20:00 -13°C° 0 mm 3 mps 607 mmHg 43%
    21:00 -13°C° 0 mm 3 mps 607 mmHg 42%
    22:00 -13°C° 0 mm 3 mps 607 mmHg 42%
    23:00 -13°C° 0 mm 3 mps 607 mmHg 42%

    26 January, Saturday

    Time Temperature Precipitation Wind Pressure Humidity
    00:00 -13°C° 0 mm 3 mps 607 mmHg 43%
    01:00 -14°C° 0 mm 3 mps 607 mmHg 43%
    02:00 -14°C° 0 mm 3 mps 606 mmHg 44%
    03:00 -14°C° 0 mm 3 mps 606 mmHg 44%
    04:00 -14°C° 0 mm 3 mps 606 mmHg 45%
    05:00 -14°C° 0 mm 3 mps 606 mmHg 45%
    06:00 -14°C° 0 mm 3 mps 606 mmHg 46%
    07:00 -13°C° 0 mm 3 mps 606 mmHg 46%
    08:00 -13°C° 0 mm 3 mps 607 mmHg 47%
    09:00 -9°C° 0 mm 2 mps 607 mmHg 49%
    10:00 -7°C° 0 mm 2 mps 607 mmHg 51%
    11:00 -3°C° 0 mm 1 mps 607 mmHg 54%
    12:00 -3°C° 0 mm 1 mps 607 mmHg 56%
    13:00 -3°C° 0 mm 1 mps 606 mmHg 58%
    14:00 -3°C° 0 mm 1 mps 606 mmHg 60%
    15:00 -6°C° 0 mm 1 mps 606 mmHg 57%
    16:00 -8°C° 0 mm 2 mps 605 mmHg 54%
    17:00 -12°C° 0 mm 3 mps 605 mmHg 52%
    18:00 -12°C° 0 mm 3 mps 606 mmHg 50%
    19:00 -12°C° 0 mm 3 mps 606 mmHg 49%
    20:00 -12°C° 0 mm 3 mps 606 mmHg 48%
    21:00 -13°C° 0 mm 3 mps 606 mmHg 47%
    22:00 -13°C° 0 mm 3 mps 606 mmHg 47%
    23:00 -13°C° 0 mm 3 mps 606 mmHg 46%

    27 January, Sunday

    Time Temperature Precipitation Wind Pressure Humidity
    00:00 -13°C° 0 mm 3 mps 606 mmHg 46%
    01:00 -13°C° 0 mm 3 mps 606 mmHg 46%
    02:00 -13°C° 0 mm 3 mps 606 mmHg 46%
    03:00 -13°C° 0 mm 3 mps 606 mmHg 45%
    04:00 -13°C° 0 mm 3 mps 606 mmHg 45%
    05:00 -13°C° 0 mm 3 mps 606 mmHg 44%
    06:00 -13°C° 0 mm 3 mps 606 mmHg 44%
    07:00 -13°C° 0 mm 3 mps 606 mmHg 43%
    08:00 -13°C° 0 mm 3 mps 607 mmHg 42%
    09:00 -9°C° 0 mm 2 mps 607 mmHg 46%
    10:00 -6°C° 0 mm 1 mps 607 mmHg 49%
    11:00 -3°C° 0 mm 1 mps 607 mmHg 53%
    12:00 -3°C° 0 mm 1 mps 607 mmHg 56%
    13:00 -3°C° 0 mm 1 mps 606 mmHg 59%
    14:00 -3°C° 0 mm 1 mps 606 mmHg 62%
    15:00 -4°C° 0 mm 1 mps 605 mmHg 57%
    16:00 -8°C° 0 mm 2 mps 605 mmHg 53%
    17:00 -9°C° 0 mm 2 mps 605 mmHg 48%
    18:00 -12°C° 0 mm 3 mps 605 mmHg 44%
    19:00 -12°C° 0 mm 3 mps 605 mmHg 39%
    20:00 -12°C° 0 mm 3 mps 606 mmHg 35%
    21:00 -12°C° 0 mm 3 mps 606 mmHg 33%
    22:00 -12°C° 0 mm 3 mps 606 mmHg 32%
    23:00 -12°C° 0 mm 3 mps 605 mmHg 30%
    Show more